GW3148 Weather Reports


time (UTC)temp
C
wind
direction
speed
KPH
gust
KPH
rain 1hr
cm
rain 24hr
cm
rain mn
cm
humidity
%
barometer
mb
20260508122709 18 0 4.8 11.3 0.00 0.64 0.00 71 1012.0
20260508122209 18 23 6.4 11.3 0.00 0.64 0.00 69 1012.2
20260508121709 18 45 6.4 11.3 0.00 0.64 0.00 70 1012.4
20260508121209 18 23 6.4 11.3 0.00 0.64 0.00 70 1012.4
20260508120209 18 0 4.8 12.9 0.00 0.64 0.00 69 1012.2
20260508115709 18 0 6.4 9.7 0.00 0.64 0.00 70 1012.1
20260508115209 18 45 6.4 9.7 0.00 0.71 0.00 70 1012.3
20260508114209 17 23 3.2 6.4 0.00 0.81 0.00 72 1012.1
20260508113709 17 23 4.8 6.4 0.00 0.81 0.00 75 1012.1
20260508113208 17 45 1.6 6.4 0.00 0.81 0.00 79 1012.3
20260508112708 16 45 3.2 6.4 0.00 0.81 0.00 82 1012.2
20260508112208 15 23 3.2 6.4 0.00 0.81 0.00 83 1012.2
20260508111708 15 45 3.2 6.4 0.00 0.81 0.00 84 1012.5
20260508111208 15 0 3.2 6.4 0.00 0.81 0.00 84 1012.5
20260508110209 15 293 3.2 6.4 0.00 0.81 0.00 83 1012.8
20260508105709 16 293 1.6 11.3 0.00 0.81 0.00 83 1013.1
20260508105209 16 338 3.2 11.3 0.00 0.81 0.00 82 1013.3
20260508104709 16 293 3.2 12.9 0.00 0.81 0.00 81 1013.3
20260508104209 16 315 6.4 12.9 0.00 0.81 0.00 80 1013.6
20260508103709 16 293 6.4 12.9 0.00 0.81 0.00 77 1013.5
20260508103209 16 270 9.7 12.9 0.00 0.81 0.00 77 1013.5
20260508101708 16 315 6.4 17.7 0.00 0.81 0.00 78 1013.5
20260508101208 17 315 6.4 17.7 0.00 0.81 0.00 76 1013.6
20260508100209 17 0 6.4 12.9 0.00 0.81 0.00 75 1013.6
20260508095709 16 315 8.0 12.9 0.00 0.81 0.00 74 1013.4
20260508095209 17 315 6.4 12.9 0.00 0.81 0.00 74 1013.6
20260508094709 17 338 6.4 12.9 0.00 0.81 0.00 73 1013.7
20260508094209 17 315 8.0 12.9 0.00 0.81 0.00 72 1013.8
20260508093209 17 315 6.4 9.7 0.00 0.81 0.00 72 1013.5
20260508092709 17 338 4.8 9.7 0.00 0.81 0.00 71 1013.3
20260508092209 17 338 6.4 6.4 0.00 0.81 0.00 70 1013.3
20260508091709 17 338 3.2 6.4 0.00 0.81 0.00 69 1013.5
20260508091209 17 338 3.2 11.3 0.00 0.81 0.00 68 1013.4
20260508090709 17 315 6.4 11.3 0.00 0.81 0.00 68 1013.4
20260508085209 17 315 6.4 12.9 0.00 0.81 0.00 72 1013.1
20260508084709 17 293 6.4 12.9 0.00 0.81 0.00 73 1013.0
20260508083709 16 315 6.4 11.3 0.00 0.81 0.00 76 1013.2
20260508083209 16 315 6.4 6.4 0.00 0.81 0.00 77 1012.9
20260508082709 16 293 6.4 6.4 0.00 0.81 0.00 78 1013.2
20260508082209 15 293 3.2 6.4 0.00 0.81 0.00 79 1012.9
20260508081709 15 270 4.8 6.4 0.00 0.81 0.00 81 1013.0
20260508081209 15 315 3.2 6.4 0.00 0.81 0.00 81 1012.9
20260508080709 15 315 3.2 9.7 0.00 0.81 0.00 82 1013.0
20260508080208 15 315 3.2 9.7 0.00 0.81 0.00 82 1012.9
20260508075708 15 315 3.2 9.7 0.00 0.81 0.00 82 1013.3
20260508074708 15 293 4.8 6.4 0.00 0.81 0.00 82 1012.9
20260508074208 15 293 3.2 6.4 0.00 0.81 0.00 82 1012.6
20260508072709 15 315 3.2 6.4 0.00 0.81 0.00 81 1012.2
20260508072209 15 293 4.8 6.4 0.00 0.81 0.00 81 1012.1
20260508071709 15 270 1.6 9.7 0.00 0.81 0.00 80 1012.0
20260508070708 15 293 3.2 12.9 0.00 0.81 0.00 80 1012.1
20260508070208 16 338 3.2 12.9 0.00 0.81 0.00 80 1012.0
20260508065709 15 338 8.0 11.3 0.00 0.81 0.00 79 1011.8
20260508065208 16 0 3.2 11.3 0.00 0.81 0.00 79 1011.6
20260508064709 15 338 3.2 11.3 0.00 0.81 0.00 81 1011.6
20260508064208 15 338 6.4 11.3 0.00 0.81 0.00 82 1011.8
20260508063708 15 315 4.8 9.7 0.00 0.81 0.00 84 1011.9
20260508062709 15 315 3.2 3.2 0.00 0.81 0.00 87 1011.8
20260508062209 15 293 1.6 3.2 0.00 0.81 0.00 88 1011.8
20260508061709 15 293 0.0 3.2 0.00 0.81 0.00 88 1011.6
20260508061209 14 293 1.6 3.2 0.00 0.81 0.00 89 1011.5
20260508060709 13 315 0.0 3.2 0.00 0.81 0.00 89 1011.4
20260508060209 13 293 3.2 3.2 0.00 0.81 0.00 90 1011.6
20260508055209 13 270 0.0 3.2 0.00 0.81 0.00 90 1011.7
20260508054709 12 270 0.0 3.2 0.00 0.81 0.00 90 1011.4
20260508054209 12 248 1.6 3.2 0.00 0.81 0.00 90 1011.4
20260508053709 12 225 3.2 3.2 0.00 0.81 0.00 90 1011.4
20260508053209 12 293 1.6 3.2 0.00 0.81 0.00 90 1011.3
20260508052709 12 293 1.6 3.2 0.00 0.81 0.00 90 1011.0
20260508052209 12 293 0.0 3.2 0.00 0.81 0.00 91 1011.2
20260508051709 12 315 1.6 3.2 0.00 0.81 0.00 91 1011.0
20260508051209 12 338 1.6 3.2 0.00 0.81 0.00 91 1011.0
20260508050709 12 315 0.0 3.2 0.00 0.81 0.00 91 1011.3
20260508050209 12 315 0.0 3.2 0.00 0.81 0.00 91 1011.0
20260508045209 12 270 1.6 6.4 0.00 0.81 0.00 91 1011.0
20260508044208 13 293 3.2 6.4 0.00 0.81 0.00 91 1010.9
20260508043709 13 293 3.2 6.4 0.00 0.81 0.00 91 1010.5
20260508043209 13 293 3.2 6.4 0.00 0.81 0.00 91 1010.5
20260508042709 13 293 3.2 6.4 0.00 0.81 0.00 91 1010.6
20260508041709 13 293 3.2 6.4 0.00 0.81 0.00 91 1010.7
20260508041209 12 270 1.6 6.4 0.00 0.81 0.00 91 1010.9
20260508040709 12 293 3.2 3.2 0.00 0.81 0.00 91 1010.6
20260508040209 13 293 3.2 3.2 0.00 0.81 0.00 91 1010.7
20260508035709 13 270 1.6 3.2 0.00 0.81 0.00 91 1010.7
20260508035208 13 270 1.6 3.2 0.00 0.81 0.00 91 1010.9
20260508034709 13 270 1.6 6.4 0.00 0.81 0.00 91 1010.9
20260508034209 12 270 3.2 6.4 0.00 0.81 0.00 92 1011.1
20260508033709 12 293 1.6 6.4 0.00 0.81 0.00 92 1010.6
20260508033209 13 293 3.2 3.2 0.00 0.81 0.00 92 1010.6
20260508032709 12 293 1.6 3.2 0.00 0.81 0.00 92 1010.7
20260508032209 12 248 1.6 0.0 0.00 0.81 0.00 92 1010.6
20260508023209 13 248 0.0 3.2 0.00 0.81 0.00 92 1011.1
20260508022709 13 248 0.0 3.2 0.00 0.81 0.00 92 1011.0
20260508022209 13 248 0.0 3.2 0.00 0.81 0.00 92 1011.1
20260508021209 13 270 1.6 3.2 0.00 0.81 0.00 92 1011.0
20260508020709 13 248 0.0 3.2 0.00 0.81 0.00 92 1011.1
20260508020208 13 293 1.6 6.4 0.00 0.81 0.00 92 1011.6
20260508015708 13 270 3.2 6.4 0.00 0.81 0.00 92 1011.3
20260508015209 13 270 3.2 6.4 0.00 0.81 0.00 92 1011.5
20260508014709 13 293 4.8 3.2 0.00 0.81 0.00 92 1011.6
20260508014208 13 270 1.6 6.4 0.00 0.81 0.00 92 1011.2
20260508013709 13 270 1.6 6.4 0.00 0.81 0.00 92 1011.2
20260508012709 13 293 4.8 6.4 0.00 0.81 0.00 92 1011.2
20260508012208 13 270 1.6 6.4 0.00 0.81 0.00 91 1011.4
20260508011709 13 270 1.6 6.4 0.00 0.81 0.00 91 1011.4
20260508011209 12 270 3.2 3.2 0.00 0.81 0.00 91 1011.4
20260508010709 12 248 3.2 3.2 0.00 0.81 0.00 91 1011.6
20260508010209 12 248 1.6 3.2 0.00 0.81 0.00 91 1011.4
20260508005708 12 270 1.6 3.2 0.00 0.81 0.00 91 1011.7
20260508005209 12 270 1.6 3.2 0.00 0.81 0.00 90 1011.7
20260508004709 13 270 1.6 3.2 0.00 0.81 0.00 90 1011.9
20260508003709 13 270 0.0 3.2 0.00 0.81 0.00 90 1012.0
20260508003209 13 293 3.2 3.2 0.00 0.81 0.00 90 1012.0
20260508002709 13 293 3.2 3.2 0.00 0.81 0.00 90 1012.1
20260508002209 13 293 1.6 3.2 0.00 0.81 0.00 90 1012.2
20260508001209 13 293 1.6 3.2 0.00 0.81 0.00 89 1012.3
20260507235709 13 315 1.6 6.4 0.00 0.81 0.00 89 1012.4
20260507235209 13 293 3.2 6.4 0.00 0.81 0.00 88 1012.4
20260507234708 13 293 3.2 6.4 0.00 0.81 0.00 88 1012.5
20260507234209 14 270 3.2 6.4 0.00 0.81 0.00 87 1012.4
20260507233709 15 293 3.2 6.4 0.00 0.81 0.00 85 1012.5
20260507233209 15 293 3.2 6.4 0.00 0.81 0.00 85 1012.5
20260507232709 15 293 3.2 3.2 0.00 0.81 0.00 85 1012.6
20260507232209 15 225 3.2 3.2 0.00 0.81 0.00 85 1012.7
20260507231709 15 248 3.2 6.4 0.00 0.81 0.00 83 1012.6
20260507230708 16 45 3.2 0.0 0.00 0.81 0.00 82 1012.8
20260507223709 16 45 1.6 12.9 0.00 0.81 0.00 83 1012.8
20260507223209 16 45 1.6 12.9 0.00 0.81 0.00 83 1012.7
20260507222709 16 68 3.2 12.9 0.00 0.81 0.00 83 1012.7
20260507222209 16 68 6.4 12.9 0.00 0.81 0.00 83 1012.6
20260507221709 16 90 3.2 11.3 0.00 0.81 0.00 83 1012.6
20260507220709 16 68 3.2 11.3 0.00 0.81 0.00 83 1012.5
20260507220208 16 45 4.8 11.3 0.00 0.81 0.81 82 1012.5
20260507215209 16 68 4.8 14.5 0.00 0.81 0.81 82 1012.4
20260507214209 16 90 8.0 14.5 0.00 0.81 0.81 81 1012.3
20260507213209 16 45 6.4 14.5 0.00 0.81 0.81 83 1012.2
20260507212709 16 68 6.4 17.7 0.00 0.81 0.81 84 1012.2
20260507212209 16 90 6.4 17.7 0.00 0.81 0.81 84 1012.2
20260507211709 16 45 8.0 17.7 0.00 0.81 0.81 85 1012.5
20260507211209 16 68 9.7 17.7 0.00 0.81 0.81 85 1011.9
20260507210709 16 45 8.0 17.7 0.00 0.81 0.81 84 1012.2
20260507210209 16 45 8.0 20.9 0.00 0.81 0.81 84 1012.0
20260507205709 16 68 11.3 20.9 0.00 0.81 0.81 84 1012.0
20260507205209 16 45 6.4 22.5 0.00 0.81 0.81 84 1012.1
20260507204709 16 45 6.4 22.5 0.00 0.81 0.81 84 1012.0
20260507204209 17 68 6.4 22.5 0.00 0.81 0.81 83 1012.1
20260507203709 17 68 12.9 22.5 0.00 0.81 0.81 80 1011.9
20260507203209 17 68 9.7 22.5 0.00 0.81 0.81 79 1011.8
20260507202709 16 45 12.9 22.5 0.00 0.81 0.81 79 1011.7
20260507202209 16 45 8.0 22.5 0.00 0.81 0.81 81 1011.8
20260507201709 16 68 11.3 20.9 0.00 0.81 0.81 82 1011.9
20260507200708 16 45 8.0 22.5 0.00 0.81 0.81 83 1011.9
20260507200209 16 68 12.9 22.5 0.00 0.81 0.81 83 1011.8
20260507194709 16 45 12.9 25.7 0.00 0.81 0.81 83 1011.6
20260507194208 16 45 12.9 25.7 0.00 0.81 0.81 84 1011.6
20260507193709 16 45 12.9 25.7 0.00 0.81 0.81 85 1011.4
20260507193209 16 45 16.1 25.7 0.00 0.81 0.81 86 1011.4
20260507191710 16 45 16.1 20.9 0.00 0.81 0.81 85 1011.3
20260507191209 16 23 9.7 20.9 0.00 0.81 0.81 86 1011.0
20260507190709 17 45 12.9 20.9 0.00 0.81 0.81 85 1010.8
20260507190209 17 45 11.3 14.5 0.00 0.81 0.81 85 1010.8
20260507185709 17 23 4.8 14.5 0.00 0.81 0.81 84 1010.9
20260507185209 17 23 8.0 12.9 0.00 0.81 0.81 83 1010.6
20260507184709 17 0 4.8 12.9 0.00 0.81 0.81 82 1010.6
20260507183709 17 23 6.4 9.7 0.00 0.81 0.81 82 1010.6
20260507183209 17 45 6.4 12.9 0.00 0.81 0.81 81 1010.6
20260507182709 17 23 6.4 12.9 0.00 0.81 0.81 80 1010.3
20260507182209 17 338 4.8 12.9 0.00 0.81 0.81 79 1010.2
20260507181709 17 45 6.4 12.9 0.00 0.81 0.81 78 1010.0
20260507181208 17 45 6.4 14.5 0.00 0.81 0.81 78 1009.9
20260507180710 17 45 3.2 14.5 0.00 0.81 0.81 79 1009.9
20260507180209 16 68 6.4 14.5 0.00 0.81 0.81 81 1010.0
20260507175709 16 68 6.4 14.5 0.00 0.81 0.81 82 1009.6
20260507175209 17 90 4.8 14.5 0.00 0.81 0.81 84 1009.9
20260507174709 17 90 6.4 14.5 0.00 0.81 0.81 84 1009.7
20260507174209 17 45 6.4 12.9 0.00 0.81 0.81 85 1009.7
20260507173709 17 45 8.0 9.7 0.00 0.81 0.81 84 1009.8
20260507172209 17 45 4.8 11.3 0.00 0.81 0.81 83 1010.0
20260507171209 17 45 4.8 11.3 0.00 0.81 0.81 83 1009.8
20260507170709 17 90 6.4 11.3 0.00 0.81 0.81 83 1009.6
20260507170209 17 68 3.2 9.7 0.00 0.81 0.81 83 1009.9
20260507165709 17 68 4.8 11.3 0.00 0.81 0.81 83 1009.9
20260507165209 17 90 6.4 11.3 0.00 0.81 0.81 83 1009.7
20260507164709 17 68 3.2 11.3 0.00 0.81 0.81 82 1009.8
20260507164209 17 68 6.4 11.3 0.00 0.81 0.81 80 1009.8
20260507163709 18 90 6.4 11.3 0.00 0.81 0.81 78 1009.8
20260507162709 18 45 6.4 9.7 0.00 0.81 0.81 75 1009.7
20260507162209 18 23 6.4 9.7 0.00 0.81 0.81 75 1009.6
20260507161709 18 45 3.2 9.7 0.00 0.81 0.81 77 1009.7
20260507161209 18 45 3.2 6.4 0.00 0.81 0.81 79 1009.6
20260507160709 17 68 6.4 9.7 0.00 0.81 0.81 81 1009.5
20260507160210 17 45 3.2 9.7 0.00 0.81 0.81 84 1009.5
20260507155709 16 45 6.4 11.3 0.00 0.81 0.81 85 1009.4
20260507155210 16 68 6.4 11.3 0.00 0.81 0.81 85 1009.4
20260507154709 16 45 6.4 11.3 0.03 0.81 0.81 86 1009.2
20260507154209 16 45 6.4 12.9 0.03 0.81 0.81 87 1009.2
20260507153209 16 45 4.8 12.9 0.05 0.81 0.81 88 1009.4
20260507152709 16 45 4.8 11.3 0.13 0.81 0.81 88 1009.5
20260507152209 16 45 3.2 14.5 0.18 0.81 0.81 88 1009.2
20260507151709 16 90 3.2 17.7 0.23 0.81 0.81 89 1009.5
20260507151209 16 68 3.2 17.7 0.30 0.81 0.81 89 1009.4
20260507150709 16 68 8.0 17.7 0.46 0.81 0.81 89 1009.2
20260507150209 16 113 8.0 17.7 0.56 0.81 0.81 89 1009.4
20260507145709 16 68 8.0 14.5 0.61 0.81 0.81 89 1009.2
20260507145209 15 90 8.0 14.5 0.64 0.81 0.81 88 1009.3
20260507144709 15 90 9.7 12.9 0.61 0.79 0.79 89 1009.3
20260507144209 15 68 6.4 11.3 0.61 0.79 0.79 89 1009.4
20260507143709 15 68 6.4 11.3 0.61 0.79 0.79 89 1009.5
20260507143209 15 23 0.0 11.3 0.56 0.76 0.76 89 1009.8
20260507142709 15 293 3.2 6.4 0.48 0.66 0.66 89 1009.8
20260507142209 16 270 3.2 6.4 0.38 0.56 0.56 88 1009.7
20260507141709 16 293 3.2 3.2 0.36 0.53 0.53 88 1009.8
20260507141209 16 270 3.2 11.3 0.23 0.43 0.43 87 1009.9
20260507140709 16 270 1.6 12.9 0.13 0.30 0.30 86 1009.8
20260507135709 16 113 1.6 17.7 0.00 0.18 0.18 84 1009.6
20260507135209 16 45 6.4 17.7 0.00 0.18 0.18 83 1009.4
20260507134709 17 45 3.2 17.7 0.00 0.18 0.18 83 1009.4
20260507134209 17 23 4.8 22.5 0.00 0.18 0.18 83 1009.4
20260507133709 17 45 8.0 22.5 0.00 0.18 0.18 82 1009.4
20260507132710 17 68 11.3 20.9 0.00 0.18 0.18 81 1009.5
20260507132209 17 23 8.0 14.5 0.00 0.18 0.18 82 1009.6
20260507131709 18 0 9.7 14.5 0.00 0.18 0.18 81 1009.7
20260507130709 17 0 9.7 17.7 0.00 0.18 0.18 79 1009.7
20260507130209 17 0 6.4 17.7 0.00 0.18 0.18 82 1009.9
20260507125709 16 23 9.7 12.9 0.00 0.18 0.18 84 1009.8
20260507125209 16 45 4.8 12.9 0.10 0.18 0.18 86 1010.0
20260507124709 16 23 4.8 12.9 0.18 0.18 0.18 87 1009.9
20260507124209 16 23 4.8 12.9 0.18 0.18 0.18 87 1010.1
20260507123709 16 23 6.4 12.9 0.18 0.18 0.18 88 1009.9